Weather reports worldwide

Advertisment
Carlisle, United Kingdom (3220): temperature & dewpoint: 17.03.2019 09:00:00 - 23.03.2019 09:00:00 (GMT)Carlisle, United Kingdom (3220): temperature -100cm: 17.03.2019 09:00:00 - 23.03.2019 09:00:00 (GMT)Carlisle, United Kingdom (3220): reduced air pressure: 17.03.2019 09:00:00 - 23.03.2019 09:00:00 (GMT)Carlisle, United Kingdom (3220): visibility: 17.03.2019 09:00:00 - 23.03.2019 09:00:00 (GMT)Carlisle, United Kingdom (3220): precipitation: 17.03.2019 09:00:00 - 23.03.2019 09:00:00 (GMT)
Date & Time tt [°C] td [°C] tt -100cm [°C] ppp [hPa] vv [km] rr [mm]
23.03.2019 09:00:00 6,1 2,4 7,7 1031,6 28 0,0
23.03.2019 08:00:00 5,2 2,2 - 1030,7 27 0,0
23.03.2019 07:00:00 4,4 1,6 - 1030,2 22 0,0
23.03.2019 06:00:00 3,8 1,2 - 1029,5 20 0,0
23.03.2019 05:00:00 4,6 1,6 - 1028,7 21 0,0
23.03.2019 04:00:00 4,9 1,7 - 1028,4 22 0,0
23.03.2019 03:00:00 5,4 2,2 - 1028,0 23 0,0
23.03.2019 02:00:00 5,4 2,2 - 1027,5 26 0,0
23.03.2019 01:00:00 5,4 2,0 - 1026,9 30 0,0
23.03.2019 00:00:00 5,7 2,3 - 1026,5 28 0,0
22.03.2019 23:00:00 5,9 2,5 - 1026,1 27 0,0
22.03.2019 22:00:00 7,0 3,7 - 1025,2 30 0,0
22.03.2019 21:00:00 7,6 5,5 - 1024,3 28 0,0
22.03.2019 20:00:00 8,4 6,5 - 1023,3 30 0,0
22.03.2019 19:00:00 8,7 6,8 - 1022,5 45 0,0
22.03.2019 18:00:00 8,6 6,9 - 1021,4 45 0,0
22.03.2019 17:00:00 9,1 7,7 - 1020,4 13 0,2
22.03.2019 16:00:00 9,6 8,6 - 1019,9 2,0 1,2
22.03.2019 15:00:00 9,8 8,3 - 1019,9 8 0,8
22.03.2019 14:00:00 10,1 7,6 - 1019,8 11 0,2
22.03.2019 13:00:00 10,9 6,4 - 1020,1 60 0,0
22.03.2019 12:00:00 10,7 6,4 - 1020,2 55 0,0
22.03.2019 11:00:00 11,4 6,2 - 1020,0 55 0,0
22.03.2019 10:00:00 10,5 5,8 - 1020,6 75 0,0
22.03.2019 09:00:00 10,3 7,1 7,4 1021,6 45 0,0
22.03.2019 08:00:00 10,6 7,3 - 1022,4 75 0,0
22.03.2019 07:00:00 10,2 8,1 - 1022,6 75 0,0
22.03.2019 06:00:00 10,5 8,1 - 1022,7 40 0,0
22.03.2019 05:00:00 9,6 8,1 - 1023,0 26 0,0
22.03.2019 04:00:00 9,4 7,9 - 1023,8 19 0,0
22.03.2019 03:00:00 10,3 7,7 - 1024,8 26 0,0
22.03.2019 02:00:00 8,5 7,2 - 1025,4 30 0,0
22.03.2019 01:00:00 8,2 6,7 - 1026,5 28 0,0
22.03.2019 00:00:00 8,7 6,7 - 1026,7 29 0,0
21.03.2019 23:00:00 9,1 6,8 - 1027,6 30 0,0
21.03.2019 22:00:00 10,4 7,8 - 1028,6 45 0,0
21.03.2019 21:00:00 10,7 8,1 - 1028,9 50 0,0
21.03.2019 20:00:00 11,1 8,1 - 1029,4 60 0,0
21.03.2019 19:00:00 11,2 7,9 - 1029,9 65 0,0
21.03.2019 18:00:00 11,4 8,1 - 1029,8 65 0,0
21.03.2019 17:00:00 11,8 8,6 - 1029,9 55 0,0
21.03.2019 16:00:00 11,8 9,3 - 1030,1 35 0,0
21.03.2019 15:00:00 11,9 9,6 - 1030,5 40 0,0
21.03.2019 14:00:00 12,3 9,0 - 1030,5 75 0,0
21.03.2019 13:00:00 12,6 9,3 - 1031,2 75 0,0
21.03.2019 12:00:00 12,6 9,1 - 1031,2 75 0,0
21.03.2019 11:00:00 12,7 8,9 - 1031,0 75 0,0
21.03.2019 10:00:00 12,3 9,0 - 1030,7 75 0,0
21.03.2019 09:00:00 11,3 9,2 7,2 1030,5 50 0,0
21.03.2019 08:00:00 10,5 8,9 - 1029,8 30 0,0
21.03.2019 07:00:00 9,9 8,4 - 1029,2 24 0,0
21.03.2019 06:00:00 10,1 8,4 - 1028,6 22 0,0
21.03.2019 05:00:00 10,1 8,5 - 1028,2 24 0,0
21.03.2019 04:00:00 10,2 8,6 - 1027,9 26 0,0
21.03.2019 03:00:00 9,7 8,5 - 1027,7 27 0,0
21.03.2019 02:00:00 10,2 8,9 - 1027,9 30 0,0
21.03.2019 01:00:00 10,4 9,4 - 1027,7 30 0,0
21.03.2019 00:00:00 10,2 8,9 - 1027,8 75 0,0
20.03.2019 23:00:00 10,4 9,2 - 1027,6 75 0,2
20.03.2019 22:00:00 10,4 9,0 - 1027,7 3,4 0,0
20.03.2019 21:00:00 12,3 9,2 - 1027,5 75 0,0
20.03.2019 20:00:00 11,0 8,7 - 1027,7 75 0,0
20.03.2019 19:00:00 12,0 9,0 - 1027,5 30 0,0
20.03.2019 18:00:00 11,9 9,2 - 1027,1 60 0,0
20.03.2019 17:00:00 11,7 9,3 - 1027,2 45 0,0
20.03.2019 16:00:00 11,9 9,4 - 1027,4 60 0,0
20.03.2019 15:00:00 11,5 9,2 - 1027,5 45 0,0
20.03.2019 14:00:00 11,0 9,0 - 1028,1 18 0,0
20.03.2019 13:00:00 11,0 9,4 - 1028,3 19 0,0
20.03.2019 12:00:00 10,5 8,9 - 1028,4 21 0,0
20.03.2019 11:00:00 9,6 8,6 - 1028,5 16 0,0
20.03.2019 10:00:00 10,1 8,8 - 1028,6 17 0,0
20.03.2019 09:00:00 10,0 8,9 7,0 1028,3 10 0,0
20.03.2019 08:00:00 9,8 8,7 - 1027,8 17 0,0
20.03.2019 07:00:00 9,7 8,5 - 1027,3 15 0,0
20.03.2019 06:00:00 10,1 8,7 - 1027,2 19 0,0
20.03.2019 05:00:00 10,1 8,7 - 1027,1 30 0,0
20.03.2019 04:00:00 10,0 8,5 - 1026,6 27 0,0
20.03.2019 03:00:00 10,0 8,5 - 1026,3 30 0,0
20.03.2019 02:00:00 9,8 8,8 - 1026,4 14 0,0
20.03.2019 01:00:00 9,7 8,9 - 1026,3 15 0,0
20.03.2019 00:00:00 9,3 8,7 - 1026,1 12 0,0
19.03.2019 23:00:00 9,0 8,6 - 1025,8 6 0,0
19.03.2019 22:00:00 9,3 8,6 - 1025,5 10 0,0
19.03.2019 21:00:00 9,8 9,1 - 1024,9 12 0,0
19.03.2019 20:00:00 9,8 8,9 - 1024,5 21 0,0
19.03.2019 19:00:00 9,4 8,7 - 1024,0 35 0,0
19.03.2019 18:00:00 9,0 8,3 - 1023,7 17 0,2
19.03.2019 17:00:00 8,8 8,1 - 1023,7 3,4 0,2
19.03.2019 16:00:00 9,9 7,3 - 1023,1 75 0,0
19.03.2019 15:00:00 9,9 7,3 - 1022,8 75 0,0
19.03.2019 14:00:00 9,8 6,7 - 1022,7 65 0,0
19.03.2019 13:00:00 9,7 6,1 - 1023,1 80 0,0
19.03.2019 12:00:00 10,0 6,5 - 1023,3 35 0,0
19.03.2019 11:00:00 10,2 6,4 - 1023,4 45 0,0
19.03.2019 10:00:00 9,0 7,9 - 1023,4 22 0,0
19.03.2019 09:00:00 8,2 7,8 7,0 1023,0 4,0 0,2
19.03.2019 08:00:00 8,3 7,7 - 1022,7 3,5 0,0
19.03.2019 07:00:00 8,0 7,6 - 1022,6 10 0,0
19.03.2019 06:00:00 6,9 6,4 - 1022,3 12 0,0
19.03.2019 05:00:00 7,2 6,9 - 1022,3 7 0,2
19.03.2019 04:00:00 7,2 6,7 - 1022,4 13 0,0
19.03.2019 03:00:00 7,0 6,6 - 1022,4 9 0,0
19.03.2019 02:00:00 6,8 6,4 - 1022,4 10 0,0
19.03.2019 01:00:00 6,7 6,2 - 1022,2 7 0,0
19.03.2019 00:00:00 6,9 6,4 - 1022,2 10 0,0
18.03.2019 23:00:00 6,8 6,3 - 1021,7 6 0,0
18.03.2019 22:00:00 6,9 6,4 - 1021,5 8 0,0
18.03.2019 21:00:00 7,0 6,1 - 1021,3 14 0,4
18.03.2019 20:00:00 7,4 5,6 - 1020,8 55 0,0
18.03.2019 19:00:00 7,4 5,7 - 1020,3 70 0,0
18.03.2019 18:00:00 7,5 5,2 - 1019,5 50 0,0
18.03.2019 17:00:00 8,2 4,2 - 1018,9 75 0,0
18.03.2019 16:00:00 8,5 4,5 - 1018,4 75 0,0
18.03.2019 15:00:00 8,0 4,1 - 1018,4 70 0,0
18.03.2019 14:00:00 8,0 4,1 - 1018,2 75 0,0
18.03.2019 13:00:00 7,6 4,1 - 1018,3 75 0,0
18.03.2019 12:00:00 7,4 3,9 - 1017,9 75 0,0
18.03.2019 11:00:00 7,7 3,7 - 1017,7 70 0,0
18.03.2019 10:00:00 6,9 4,3 - 1017,4 50 0,0
18.03.2019 09:00:00 5,1 4,1 7,2 1017,0 20 0,2
18.03.2019 08:00:00 2,9 1,9 - 1016,5 28 0,0
18.03.2019 07:00:00 1,6 0,4 - 1016,3 29 0,0
18.03.2019 06:00:00 1,9 0,7 - 1015,9 29 0,0
18.03.2019 05:00:00 1,6 0,3 - 1015,5 30 0,0
18.03.2019 04:00:00 2,4 0,8 - 1015,3 30 0,0
18.03.2019 03:00:00 1,9 -0,1 - 1015,0 35 0,0
18.03.2019 02:00:00 2,6 0,1 - 1014,4 40 0,0
18.03.2019 01:00:00 2,4 -0,3 - 1014,2 40 0,0
18.03.2019 00:00:00 2,5 0,2 - 1013,6 35 0,0
17.03.2019 23:00:00 2,9 0,8 - 1012,8 45 0,0
17.03.2019 22:00:00 3,9 1,7 - 1011,7 55 0,0
17.03.2019 21:00:00 4,6 2,0 - 1010,8 75 0,0
17.03.2019 20:00:00 5,4 2,1 - 1009,8 60 0,0
17.03.2019 19:00:00 5,7 1,1 - 1008,1 75 0,0
17.03.2019 18:00:00 7,6 0,4 - 1006,4 75 0,0
17.03.2019 17:00:00 8,9 4,1 - 1004,6 75 0,0
17.03.2019 16:00:00 8,2 4,0 - 1003,6 75 0,0
17.03.2019 15:00:00 7,5 4,2 - 1002,4 29 0,0
17.03.2019 14:00:00 6,6 4,6 - 1001,4 65 0,2
17.03.2019 13:00:00 6,3 2,7 - 1000,6 45 0,0
17.03.2019 12:00:00 6,6 1,5 - 999,9 75 0,0
17.03.2019 11:00:00 6,3 2,1 - 999,2 65 0,0
17.03.2019 10:00:00 5,0 1,6 - 998,6 75 0,0
17.03.2019 09:00:00 4,3 1,4 7,2 998,2 75 0,0

tt = temperature
td = dewpoint
tt -100cm = temperature -100cm
ppp = reduced air pressure
vv = visibility
rr = precipitation

Next stations